Location: Fairlight Knoll
(50.8333°N, 0.6833°E)
Time: 22:55:23
(UTC+00:00)

Daily predictions for brighter satellites

Satellite Brightness Start Highest point End
(mag) Time Altitude Azimuth Time Altitude Azimuth Time Altitude Azimuth
Cosmos 1346 Rocket 4.2 20:54:39 10° N 20:57:53 24° ENE 21:01:04 10° ESE
ATLAS 2AS CENTAUR R/B 3.3 20:53:13 10° NW 21:00:02 54° NE 21:06:33 10° ESE
Cosmos 1674 3.0 20:57:23 10° SSW 21:00:49 60° WNW 21:04:15 10° N
IRS-1C Rocket 4.4 20:56:00 10° S 21:01:14 67° WSW 21:06:30 10° NNW
Meteor 1-22 Rocket 4.4 20:56:33 10° N 21:02:06 64° ENE 21:07:50 10° SSE
Cosmos 468 Rocket 4.3 21:00:45 10° NNW 21:05:58 67° WSW 21:11:06 10° S
KORONAS-FOTON 4.1 21:03:44 10° SSW 21:07:26 68° WNW 21:11:10 10° N
Ariane Rocket 3.0 21:03:54 10° SSE 21:09:00 83° ENE 21:14:07 10° NNW
Cosmos 1758 4.0 21:05:31 10° N 21:09:12 38° ENE 21:12:52 10° SE
Cosmos 1842 3.8 21:07:21 10° SSW 21:10:56 56° WNW 21:14:34 10° N
Cosmos 2251 Rocket 4.4 21:06:49 10° SW 21:12:00 54° WNW 21:17:16 10° NNE
COSMOS 2406 3.5 21:11:10 10° SW 21:16:56 77° WNW 21:22:43 10° NNE
SPOT 3 Rocket 3.6 21:12:48 10° SSE 21:17:57 89° ENE 21:23:09 10° NNW
Meteor 1-13 Rocket 4.3 21:13:57 10° S 21:19:45 81° E 21:25:28 10° NNE
Cosmos 1707 Rocket 4.5 21:16:16 10° SSE 21:20:13 33° E 21:24:12 10° NNE
SL-27 R/B 4.0 21:19:33 11° ESE 21:20:34 12° E 21:21:49 10° ENE
Cosmos 1980 Rocket 4.0 21:16:54 10° NW 21:21:26 25° WSW 21:25:56 10° SSW
ARIANE 5 R/B 4.3 21:18:11 10° ESE 21:21:29 22° ENE 21:24:48 10° N
Cosmos 2322 Rocket 2.4 21:16:19 10° NNW 21:22:00 68° ENE 21:27:28 11° SE
S3M 4.1 21:15:47 10° N 21:22:13 88° ENE 21:28:33 10° S
Genesis I 4.2 21:25:25 10° WSW 21:28:49 45° NW 21:32:16 10° NNE
Cosmos 1655 Rocket 4.2 21:23:48 10° S 21:30:03 59° E 21:36:21 10° NNE
Cosmos 2278 4.1 21:25:13 10° NW 21:30:51 60° WSW 21:36:26 10° SSE
Landsat 5 3.8 21:27:20 10° NNE 21:31:09 45° E 21:35:02 10° S
SJ 16-02 2.9 21:28:53 12° SE 21:31:26 19° E 21:34:27 10° NE
Landsat 4 4.2 21:33:08 10° S 21:36:29 48° W 21:39:50 10° NNW
Cosmos 1741 Rocket 4.5 21:32:22 10° S 21:37:19 43° ESE 21:42:19 10° NE
USA 281 3.7 21:32:48 10° SE 21:39:09 55° NE 21:45:34 10° NNW
Cosmos 2266 Rocket 4.1 21:33:25 10° S 21:39:45 88° WNW 21:46:12 10° N
COSMOS 2428 4.3 21:34:59 10° NNW 21:39:48 27° NE 21:44:35 10° E
Cosmos 1400 Rocket 2.7 21:36:00 10° S 21:39:54 84° E 21:43:46 10° NNE
Cosmos 1733 Rocket 3.2 21:36:06 10° N 21:40:30 66° ENE 21:44:16 14° SSE
MetOp-A 4.1 21:37:25 12° SSE 21:42:13 81° ENE 21:47:31 10° NNW
Okean 3 4.2 21:39:26 14° SSE 21:42:32 34° E 21:46:20 10° NNE
Cosmos 1707 4.3 21:39:53 10° SW 21:43:09 32° WNW 21:46:26 10° N
Terra 2.8 21:38:46 10° S 21:43:13 42° W 21:47:43 10° NNW
Cosmos 968 Rocket 4.1 21:41:01 11° SSE 21:45:23 37° ESE 21:50:08 10° NE
Cosmos 1814 Rocket 4.5 21:40:14 10° NNW 21:45:26 54° ENE 21:50:00 13° SE
SL-4 R/B 2.0 21:42:45 10° W 21:46:38 84° N 21:50:48 10° E
Cosmos 2228 Rocket 3.2 21:44:42 10° S 21:49:13 69° E 21:53:46 10° NNE
Cosmos 2219 Rocket 2.8 21:45:08 10° NNW 21:50:39 50° NE 21:55:47 12° SE
Cosmos 1315 Rocket 4.1 21:51:04 15° SE 21:53:23 25° E 21:56:41 10° NE
ATLAS CENTAUR R/B 1.9 21:52:14 15° S 21:54:28 29° ESE 21:57:36 10° ENE
Meteor 2-10 Rocket 3.9 21:49:52 10° NNW 21:55:30 67° W 22:00:34 12° S
SeaSat 1 4.3 21:53:12 10° SSW 21:57:01 22° WSW 22:00:51 10° NW
Cosmos 1953 3.2 21:54:43 10° N 21:58:19 35° ENE 22:00:51 16° SE
Cosmos 1455 3.1 21:58:21 10° N 22:01:31 31° ENE 22:03:41 17° SE
H-2A R/B 3.8 21:59:30 12° ESE 22:02:46 30° ENE 22:06:30 10° N
Cosmos 1242 Rocket 4.1 22:04:20 12° ESE 22:04:53 13° E 22:06:12 10° ENE
Meteor 1-23 Rocket 4.4 22:00:09 10° SSW 22:05:48 74° WNW 22:11:34 10° N
USA 234 3.4 21:59:48 10° ENE 22:06:22 81° NNW 22:12:55 10° WSW
Okean 1-7 3.7 22:04:58 18° SSE 22:07:48 40° E 22:11:52 10° NNE
BREEZE-M DEB (TANK) 3.0 22:05:54 10° W 22:07:51 29° SSW 22:09:09 21° SSE
CZ-2C R/B 4.2 22:04:33 10° NNE 22:08:45 41° E 22:11:36 18° SSE
Cosmos 2315 Rocket 4.5 22:06:58 10° NNW 22:13:13 60° W 22:19:12 11° S
Cosmos 2360 Rocket 2.3 22:08:07 10° NNW 22:13:47 70° WSW 22:18:06 18° SSE
ALOS 2 4.2 22:11:53 11° ESE 22:15:14 26° ENE 22:18:51 10° N
RESURS DK-1 3.4 22:14:45 10° NW 22:18:29 35° WSW 22:21:10 16° S
Cosmos 2333 Rocket 2.4 22:13:06 10° NNW 22:18:50 70° WSW 22:23:08 18° SSE
SL-16 R/B 3.4 22:16:13 10° NW 22:21:14 33° WSW 22:25:47 12° SSW
SL-14 R/B 3.9 22:17:34 10° SSW 22:21:16 50° WNW 22:24:59 10° N
Cosmos 1300 3.9 22:20:56 10° NNW 22:24:09 31° W 22:26:54 13° SSW
Atlas Centaur 2 4.4 22:20:07 10° SW 22:24:26 15° S 22:25:49 15° S
EXPRESS MD2 1.7 22:24:18 10° WSW 22:26:36 61° S 22:27:54 20° E
OPS 8737 3.9 22:24:15 10° NW 22:27:11 89° ENE 22:28:45 26° SE
Cosmos 2082 Rocket 4.5 22:23:36 10° W 22:28:24 27° NW 22:33:11 10° NNE
BREEZE-M DEB (TANK) 3.9 22:13:40 10° WSW 22:31:23 79° S 22:35:42 10° E
Cosmos 1346 Rocket 4.0 22:30:17 10° NNW 22:33:47 33° W 22:36:35 14° SSW
Aureole 3 3.6 22:30:50 16° SSW 22:33:51 71° WNW 22:38:34 10° N
Cosmos 1703 Rocket 3.9 22:32:44 22° SSE 22:35:24 51° E 22:39:45 10° NNE
Cosmos 1833 4.2 22:30:08 11° SSW 22:35:33 72° ESE 22:41:11 10° NNE
DNEPR-1 R/B 4.4 22:28:48 10° NW 22:35:46 83° SW 22:39:56 19° SE
Cosmos 1862 Rocket 4.1 22:32:47 11° SSW 22:36:51 56° WNW 22:41:13 10° N
Cosmos 839 Rocket 4.2 22:36:20 10° NW 22:43:20 67° WSW 22:47:42 20° SSE
Meteor 1-4 Rocket 2.3 22:41:49 23° SSW 22:43:29 64° WNW 22:46:30 10° N
Cosmos 2322 3.8 22:39:35 10° NNW 22:45:18 72° ENE 22:49:30 19° SE
Cosmos 2237 Rocket 3.6 22:41:11 10° NNW 22:46:16 32° NE 22:51:18 10° ESE
BlueWalker 3 4.1 22:50:03 12° ESE 22:50:03 12° ESE 22:50:40 10° E
ATLAS 2AS CENTAUR R/B 3.1 22:44:24 10° NW 22:50:56 49° WSW 22:55:16 20° S
SL-27 R/B 3.3 22:50:57 12° SW 22:53:12 34° WNW 22:55:49 10° N
ARIANE 5 R/B 3.0 22:54:58 22° S 22:57:35 52° W 23:01:50 10° NNW
Kosmos-1783 4.5 22:54:36 10° NW 22:58:17 68° SW 23:03:33 18° SSE
PSLV R/B 3.8 22:56:21 10° NNE 23:00:22 84° WNW 23:02:51 23° SSW
Okean 2 3.8 23:00:22 19° SSW 23:03:05 57° WNW 23:07:04 10° N
Cosmos 2322 Rocket 3.7 23:01:05 10° NW 23:05:33 24° WSW 23:09:15 13° SSW
Cosmos 1570 Rocket 4.0 23:00:38 10° NNW 23:06:01 84° WSW 23:09:22 24° SSE
Cosmos 1703 4.4 23:06:48 22° SE 23:08:08 27° E 23:11:17 10° NNE
SJ 16-02 1.8 23:05:36 13° SW 23:09:22 56° WNW 23:13:39 10° NNE
Cosmos 1745 Rocket 4.1 23:05:11 21° S 23:09:34 76° E 23:15:57 10° NNE
Cosmos 1241 Rocket 4.4 23:04:14 10° SSW 23:10:22 80° SE 23:16:39 10° NE
COSMOS 2455 3.8 23:08:59 22° SSE 23:11:46 31° ESE 23:17:00 10° NE
Cosmos 2297 Rocket 3.6 23:13:10 18° SE 23:15:36 24° ESE 23:20:01 10° NE
Nadezhda 1 Rocket 4.1 23:11:12 10° NNW 23:17:31 74° W 23:21:42 22° S
GP-B 3.8 23:15:00 10° N 23:19:14 47° W 23:22:05 19° SSW
Cosmos 1408 2.1 23:22:14 43° SSE 23:22:59 63° E 23:25:56 10° NNE
USA 281 4.0 23:19:37 19° SSW 23:23:52 39° WSW 23:30:00 10° NW
COSMOS 2428 2.7 23:18:56 10° NNW 23:24:39 76° WSW 23:28:13 24° SSE
SL-4 R/B 1.9 23:21:30 10° W 23:25:32 90° SSW 23:29:49 10° ESE
Cosmos 1315 Rocket 4.2 23:26:20 13° SW 23:29:24 33° WNW 23:33:03 10° N
GEOS 3 Rocket 4.5 23:25:00 10° ENE 23:29:33 31° ESE 23:31:28 24° SSE
ATLAS CENTAUR R/B 2.5 23:28:44 10° WSW 23:32:01 36° NW 23:35:26 10° NNE
Cosmos 1782 Rocket 3.9 23:27:51 10° NNW 23:32:04 53° W 23:34:15 26° SSW
Cosmos 1953 4.1 23:30:57 10° NW 23:33:55 22° W 23:35:58 15° SW
Cosmos 2219 Rocket 3.2 23:29:23 10° NW 23:34:26 34° WSW 23:37:28 20° SSW
Cosmos 1455 3.9 23:33:09 10° NW 23:35:47 20° W 23:37:25 15° SW
Cosmos 1242 Rocket 3.4 23:35:32 22° WSW 23:36:40 30° WNW 23:39:11 10° N
Cosmos 2208 Rocket 4.1 23:31:34 10° NNW 23:36:44 63° WSW 23:39:34 26° S
H-2A R/B 3.5 23:35:29 22° SSW 23:37:37 35° W 23:41:35 10° NNW
Cosmos 158 Rocket 4.1 23:33:56 10° NNW 23:39:13 65° WSW 23:42:07 26° S
Cosmos 1892 4.3 23:38:13 17° ESE 23:39:27 20° E 23:42:07 10° NE
Cosmos 371 Rocket 3.7 23:38:59 27° SSE 23:41:16 49° ESE 23:45:55 10° NNE
BREEZE-M DEB (TANK) 3.9 23:38:46 10° W 23:42:15 79° S 23:53:51 10° E
USA 129 4.3 23:43:14 10° N 23:44:00 15° NNW 23:44:00 15° NNW
Cosmos 773 Rocket 3.9 23:41:26 10° NNW 23:46:37 85° ENE 23:49:51 23° SSE
Cosmos 2151 Rocket 4.1 23:43:13 10° N 23:47:34 52° ENE 23:50:04 23° SE
USA 234 4.1 23:42:46 10° ENE 23:49:05 54° N 23:55:25 10° W
ALOS 2 3.3 23:49:16 25° SSW 23:51:22 43° W 23:55:35 10° NNW
GENESIS II 3.9 23:49:40 29° SW 23:51:24 82° SE 23:55:04 10° NE
Cosmos 1300 Rocket 4.4 23:50:14 10° NNW 23:54:14 38° W 23:56:18 23° SW
Cosmos 1503 Rocket 4.4 23:51:55 26° S 23:54:44 51° ESE 23:59:52 10° NNE
Okean 2 Rocket 3.5 23:50:30 10° N 23:54:55 57° ENE 23:57:29 23° SSE
Cosmos 2360 Rocket 4.3 23:54:26 10° WNW 23:56:43 13° W 23:59:01 10° WSW
